Monroe, Wisconsin, United States (53566)
Lat: 42.60N, Lon: 89.64W
Wx Zone: WIZ068
Local Info
Past Weather Observations for Today

NOTE: This archive is for the closest National Weather Service station to Monroe. Information may differ from the station used for current weather conditions.

Click here for Long-term Archive

Time Weather Temperature Dewpoint Humidity Pressure Winds Precip Visibility
11:55
Overcast
66°F / 19°C 59°F / 15°C 78% 29.95 in
(1014 mb)
SW 11.5 mph
(SW 19 kph)
- 10SM
11:35
Mostly Cloudy
68°F / 20°C 59°F / 15°C 73% 29.95 in
(1014 mb)
SW 10.4 mph
(SW 17 kph)
- 10SM
11:15
Partly Cloudy
64°F / 18°C 57°F / 14°C 78% 29.92 in
(1013 mb)
SW 9.2 mph
(SW 15 kph)
- 10SM
10:55
Clear
63°F / 17°C 57°F / 14°C 83% 29.83 in
(1010 mb)
SE 13.8 mph
(SE 22 kph)
- 10SM
10:35
Clear
63°F / 17°C 59°F / 15°C 88% 29.92 in
(1013 mb)
S 17.3 mph
(S 28 kph)
- 10SM
10:15
Mostly Cloudy
Drizzle
63°F / 17°C 59°F / 15°C 88% 29.95 in
(1014 mb)
S 16.1 mph
(S 26 kph)
- 10SM
09:55
Mostly Cloudy
Rain
64°F / 18°C 59°F / 15°C 83% 29.95 in
(1014 mb)
S 20.7 mph
(S 33 kph)
- 10SM
09:35
Clear
64°F / 18°C 59°F / 15°C 83% 29.98 in
(1015 mb)
SSE 17.3 mph
(SSE 28 kph)
- 10SM
09:15
Clear
64°F / 18°C 59°F / 15°C 83% 29.98 in
(1015 mb)
SSE 16.1 mph
(SSE 26 kph)
- 10SM
08:55
Clear
64°F / 18°C 59°F / 15°C 83% 29.98 in
(1015 mb)
SSE 16.1 mph
(SSE 26 kph)
- 10SM
08:35
Clear
64°F / 18°C 59°F / 15°C 83% 30.01 in
(1016 mb)
SSE 17.3 mph
(SSE 28 kph)
- 10SM
08:15
Clear
64°F / 18°C 59°F / 15°C 83% 30.01 in
(1016 mb)
S 10.4 mph
(S 17 kph)
- 10SM
07:55
Clear
63°F / 17°C 59°F / 15°C 88% 30.01 in
(1016 mb)
S 9.2 mph
(S 15 kph)
- 10SM
07:35
Clear
61°F / 16°C 59°F / 15°C 94% 30.01 in
(1016 mb)
SSE 4.6 mph
(SSE 7 kph)
- 10SM
07:15
Partly Cloudy
Light Rain
59°F / 15°C 57°F / 14°C 94% 30.04 in
(1017 mb)
SSE 3.5 mph
(SSE 6 kph)
- 10SM
06:55
Overcast
Rain
59°F / 15°C 55°F / 13°C 88% 30.04 in
(1017 mb)
Calm 0.02 in
(0.51 mm)
10SM
06:35
Overcast
Light Rain
59°F / 15°C 55°F / 13°C 88% 30.04 in
(1017 mb)
S 12.7 mph
(S 20 kph)
0.01 in
(0.25 mm)
10SM
06:15
Overcast
Light Rain
59°F / 15°C 55°F / 13°C 88% 30.04 in
(1017 mb)
SSE 16.1 mph
(SSE 26 kph)
- 10SM
05:55
Mostly Cloudy
Rain
59°F / 15°C 55°F / 13°C 88% 30.04 in
(1017 mb)
SSE 16.1 mph
(SSE 26 kph)
- 10SM
05:40
Mostly Cloudy
59°F / 15°C 54°F / 12°C 82% 30.06 in
(1018 mb)
SSE 10.4 mph
(SSE 17 kph)
- 10SM
05:15
Mostly Cloudy
59°F / 15°C 54°F / 12°C 82% 30.06 in
(1018 mb)
SW 10.4 mph
(SW 17 kph)
- 10SM
04:55
Mostly Cloudy
Light Rain
59°F / 15°C 54°F / 12°C 82% 30.06 in
(1018 mb)
SW 10.4 mph
(SW 17 kph)
- 10SM
04:35
Mostly Cloudy
Thunder Storms
59°F / 15°C 52°F / 11°C 77% 30.06 in
(1018 mb)
SW 15 mph
(SW 24 kph)
- 10SM
04:15
Partly Cloudy
59°F / 15°C 52°F / 11°C 77% 30.04 in
(1017 mb)
SSE 11.5 mph
(SSE 19 kph)
- 10SM
03:55
Clear
59°F / 15°C 52°F / 11°C 77% 30.04 in
(1017 mb)
SW 12.7 mph
(SW 20 kph)
- 10SM
03:35
Clear
59°F / 15°C 52°F / 11°C 77% 30.01 in
(1016 mb)
S 11.5 mph
(S 19 kph)
- 10SM
03:15
Clear
59°F / 15°C 52°F / 11°C 77% 30.04 in
(1017 mb)
S 11.5 mph
(S 19 kph)
- 10SM
02:55
Clear
59°F / 15°C 52°F / 11°C 77% 30.04 in
(1017 mb)
S 10.4 mph
(S 17 kph)
- 10SM
02:30
Clear
59°F / 15°C 52°F / 11°C 77% 30.04 in
(1017 mb)
S 10.4 mph
(S 17 kph)
- 10SM
02:15
Clear
59°F / 15°C 52°F / 11°C 77% 30.04 in
(1017 mb)
S 10.4 mph
(S 17 kph)
- 10SM
01:55
Clear
59°F / 15°C 54°F / 12°C 82% 30.04 in
(1017 mb)
S 9.2 mph
(S 15 kph)
- 10SM
01:35
Clear
59°F / 15°C 54°F / 12°C 82% 30.04 in
(1017 mb)
S 9.2 mph
(S 15 kph)
- 10SM
01:15
Clear
59°F / 15°C 54°F / 12°C 82% 30.04 in
(1017 mb)
SSE 8.1 mph
(SSE 13 kph)
- 10SM
00:50
Clear
59°F / 15°C 54°F / 12°C 82% 30.06 in
(1018 mb)
SSE 6.9 mph
(SSE 11 kph)
- 10SM
00:35
Clear
61°F / 16°C 55°F / 13°C 83% 30.06 in
(1018 mb)
SSE 8.1 mph
(SSE 13 kph)
- 10SM
00:15
Clear
61°F / 16°C 55°F / 13°C 83% 30.06 in
(1018 mb)
SSE 8.1 mph
(SSE 13 kph)
- 10SM
Time Weather Temperature Dewpoint Humidity Pressure Winds Precip Visibility


Weather for websites

WeatherForYou.com, LLC is not responsible for any damages or problems caused by this service. Current weather conditions are obtained from the closest station including government and personal stations which may have varying degrees of accuracy. Weather forecasts are derived from the NOAA NDFD. Like all things, this site belongs to Jesus Christ... He just trusts me to maintain it. If you have any questions or comments email webmaster@weatherforyou.com

Copyright © 2014, WeatherForYou.com LLC. All rights reserved.